Погода в Шептаках

Украина / Черниговская область     52°04′01″N   33°07′21″E
темп.,
°C
ветер,
м/с
пор.,
м/с
влажн.,
%
обл.,
%
осадки,
мм/ч
давл.,
гПа
погр.,
м
5 марта, пт
пт523:00−1сз4109498 0.0 1006376
02:00−2зсз499594 0.0 1008280
05:00−5сз349676 0.0 101074
08:00−5сз349461 0.0 1011140
11:00−2сз359211 0.0 1013439
14:00−1сз358454 0.0 1014668
17:00−3сз2389100 0.0 101556
20:00−5зсз2389100 0.0 101727
6 марта, сб
сб623:00−6зсз3391100 0.0 101867
02:00−7сз4889100 0.0 1019154
05:00−9сз498879 0.0 1019174
08:00−8сз5108640 0.0 1021287
11:00−4сз69780 0.0 1021756
14:00−3сз57720 0.0 10211159
17:00−5зсз348429 0.1 102169
20:00−8з348815 0.1 102246
7 марта, вс
вс723:00−8зюз36880 0.0 102288
02:00−8юз510900 0.0 1020207
05:00−6юз7148257 0.0 1017412
08:00−4юз9178179 0.0 1013727
11:00−1зюз111786100 0.1 10091189
14:000з111794100 0.3 10081306
17:00−1зсз6129499 1.1 1008814
20:00−3всв019899 5.6 100896
8 марта, пн
пн823:00−3зюз1198100 1.8 100853
02:00−2з51192100 2.4 1006605
05:00−3з51292100 0.3 1006652
08:00−5зсз6128468 0.3 1008810
11:00−4ссз587685 0.1 10101108
14:00−4сз467154 0.1 1012907
17:00−7сз118316 0.0 101221
20:00−9ю118525 0.0 101321
9 марта, вт
вт923:00−9ю229481 0.1 101329
02:00−9св129780 0.3 101322
05:00−8с2396100 0.7 101496
08:00−8ссз599398 0.8 1016511
11:00−8с6788100 0.1 1018818
14:00−8ссз6885100 0.3 1021894
17:00−10ссз4887100 0.1 1022368
20:00−13ссз359054 0.1 102593